| time (UTC) | temp C | wind direction | speed KPH | gust KPH | rain 1hr cm | rain 24hr cm | rain mn cm | humidity % | barometer mb |
| 20260508050037 | 7 | 0.0 | 0.0 | 0.00 | 0.23 | 0.00 | 96 | 1013.7 | |
| 20260508045017 | 7 | 0.0 | 0.0 | 0.00 | 0.23 | 0.00 | 96 | 1013.5 | |
| 20260508044018 | 7 | 0.0 | 0.0 | 0.00 | 0.23 | 0.00 | 96 | 1013.4 | |
| 20260508043017 | 7 | 0.0 | 0.0 | 0.00 | 0.23 | 0.00 | 96 | 1013.3 | |
| 20260508042017 | 7 | 0.0 | 0.0 | 0.00 | 0.23 | 0.00 | 96 | 1013.4 | |
| 20260508041017 | 7 | 0.0 | 0.0 | 0.00 | 0.23 | 0.00 | 96 | 1013.3 | |
| 20260508040017 | 8 | 0.0 | 0.0 | 0.00 | 0.23 | 0.00 | 96 | 1013.2 | |
| 20260508035036 | 8 | 0.0 | 0.0 | 0.00 | 0.23 | 0.23 | 96 | 1013.1 | |
| 20260508034017 | 8 | 0.0 | 0.0 | 0.00 | 0.23 | 0.23 | 96 | 1013.2 | |
| 20260508033016 | 8 | 0.0 | 0.0 | 0.00 | 0.23 | 0.23 | 96 | 1013.2 | |
| 20260508032016 | 8 | 0.0 | 0.0 | 0.00 | 0.23 | 0.23 | 96 | 1013.1 | |
| 20260508031016 | 8 | 0.0 | 0.0 | 0.00 | 0.23 | 0.23 | 96 | 1013.0 | |
| 20260508030019 | 8 | 0.0 | 0.0 | 0.00 | 0.23 | 0.23 | 96 | 1013.0 | |
| 20260508025017 | 8 | 0.0 | 0.0 | 0.00 | 0.23 | 0.23 | 96 | 1012.8 | |
| 20260508024016 | 8 | 0.0 | 0.0 | 0.00 | 0.23 | 0.23 | 96 | 1012.8 | |
| 20260508023016 | 8 | 0.0 | 0.0 | 0.00 | 0.23 | 0.23 | 95 | 1012.8 | |
| 20260508022017 | 8 | 0.0 | 0.0 | 0.00 | 0.23 | 0.23 | 95 | 1012.7 | |
| 20260508021016 | 8 | 0.0 | 0.0 | 0.00 | 0.23 | 0.23 | 95 | 1012.8 | |
| 20260508020017 | 8 | 0.0 | 0.0 | 0.00 | 0.23 | 0.23 | 94 | 1012.5 | |
| 20260508015037 | 9 | 0.0 | 0.0 | 0.00 | 0.23 | 0.23 | 94 | 1012.4 | |
| 20260508014037 | 9 | 0.0 | 0.0 | 0.00 | 0.23 | 0.23 | 94 | 1012.2 | |
| 20260508013016 | 10 | 0.0 | 0.0 | 0.00 | 0.23 | 0.23 | 93 | 1012.3 | |
| 20260508012016 | 10 | 0.0 | 0.0 | 0.00 | 0.23 | 0.23 | 93 | 1012.4 | |
| 20260508011016 | 10 | 0.0 | 0.0 | 0.00 | 0.23 | 0.23 | 93 | 1012.4 | |
| 20260508010016 | 11 | 0.0 | 0.0 | 0.00 | 0.23 | 0.23 | 93 | 1012.3 | |
| 20260508005016 | 11 | 0.0 | 0.0 | 0.00 | 0.23 | 0.23 | 93 | 1012.2 | |
| 20260508004016 | 11 | 0.0 | 0.0 | 0.00 | 0.23 | 0.23 | 92 | 1012.0 | |
| 20260508003016 | 11 | 0.0 | 0.0 | 0.00 | 0.23 | 0.23 | 92 | 1012.2 | |
| 20260508002016 | 11 | 0.0 | 0.0 | 0.00 | 0.23 | 0.23 | 92 | 1012.1 | |
| 20260508001037 | 11 | 0.0 | 0.0 | 0.00 | 0.23 | 0.23 | 92 | 1011.9 | |
| 20260508000016 | 11 | 0.0 | 0.0 | 0.00 | 0.23 | 0.23 | 92 | 1011.6 | |
| 20260507235016 | 11 | 0.0 | 0.0 | 0.00 | 0.23 | 0.23 | 91 | 1011.5 | |
| 20260507234016 | 12 | 0.0 | 0.0 | 0.00 | 0.23 | 0.23 | 90 | 1011.4 | |
| 20260507233056 | 12 | 0.0 | 1.6 | 0.00 | 0.23 | 0.23 | 89 | 1011.5 | |
| 20260507232016 | 12 | 0.0 | 1.6 | 0.00 | 0.23 | 0.23 | 87 | 1011.2 | |
| 20260507231036 | 12 | 0.0 | 1.6 | 0.00 | 0.23 | 0.23 | 87 | 1011.0 | |
| 20260507230016 | 12 | 0.0 | 0.0 | 0.00 | 0.23 | 0.23 | 88 | 1011.0 | |
| 20260507225016 | 12 | 0.0 | 1.6 | 0.00 | 0.23 | 0.23 | 90 | 1011.1 | |
| 20260507224016 | 12 | 0.0 | 1.6 | 0.00 | 0.23 | 0.23 | 89 | 1011.1 | |
| 20260507223036 | 12 | 113 | 1.6 | 4.8 | 0.00 | 0.23 | 0.23 | 89 | 1011.0 |
| 20260507222016 | 12 | 0.0 | 1.6 | 0.00 | 0.23 | 0.23 | 90 | 1011.1 | |
| 20260507221016 | 12 | 0.0 | 1.6 | 0.00 | 0.23 | 0.23 | 91 | 1011.0 | |
| 20260507220016 | 12 | 0.0 | 1.6 | 0.00 | 0.23 | 0.23 | 91 | 1010.9 | |
| 20260507215016 | 12 | 0.0 | 1.6 | 0.00 | 0.23 | 0.23 | 91 | 1010.9 | |
| 20260507214016 | 12 | 90 | 1.6 | 3.2 | 0.00 | 0.23 | 0.23 | 91 | 1011.1 |
| 20260507213016 | 12 | 0.0 | 3.2 | 0.03 | 0.23 | 0.23 | 92 | 1010.9 | |
| 20260507212016 | 12 | 90 | 1.6 | 3.2 | 0.05 | 0.23 | 0.23 | 91 | 1010.8 |
| 20260507211036 | 12 | 0.0 | 6.4 | 0.05 | 0.23 | 0.23 | 92 | 1010.8 | |
| 20260507210016 | 12 | 0.0 | 3.2 | 0.08 | 0.23 | 0.23 | 92 | 1010.7 | |
| 20260507205017 | 12 | 0.0 | 0.0 | 0.15 | 0.23 | 0.23 | 92 | 1010.9 | |
| 20260507204016 | 12 | 0.0 | 0.0 | 0.15 | 0.23 | 0.23 | 92 | 1011.1 | |
| 20260507203016 | 12 | 0.0 | 0.0 | 0.13 | 0.20 | 0.20 | 91 | 1011.3 | |
| 20260507202156 | 12 | 0.0 | 0.0 | 0.13 | 0.18 | 0.18 | 90 | 1011.1 | |
| 20260507201016 | 12 | 0.0 | 0.0 | 0.13 | 0.18 | 0.18 | 89 | 1011.1 | |
| 20260507200016 | 12 | 0.0 | 1.6 | 0.10 | 0.15 | 0.15 | 88 | 1011.4 | |
| 20260507195017 | 12 | 0.0 | 0.0 | 0.03 | 0.08 | 0.08 | 87 | 1011.3 | |
| 20260507194016 | 13 | 0.0 | 0.0 | 0.03 | 0.08 | 0.08 | 84 | 1011.5 | |
| 20260507193016 | 13 | 0.0 | 0.0 | 0.03 | 0.08 | 0.08 | 83 | 1011.3 | |
| 20260507192016 | 13 | 0.0 | 0.0 | 0.00 | 0.05 | 0.05 | 82 | 1011.8 | |
| 20260507191017 | 13 | 0.0 | 0.0 | 0.00 | 0.05 | 0.05 | 81 | 1011.8 | |
| 20260507190016 | 13 | 0.0 | 0.0 | 0.00 | 0.05 | 0.05 | 82 | 1011.7 | |
| 20260507185036 | 13 | 0.0 | 1.6 | 0.00 | 0.05 | 0.05 | 81 | 1011.6 | |
| 20260507184016 | 13 | 0.0 | 0.0 | 0.00 | 0.05 | 0.05 | 80 | 1011.6 | |
| 20260507183016 | 13 | 0.0 | 0.0 | 0.00 | 0.05 | 0.05 | 80 | 1011.9 | |
| 20260507182016 | 14 | 0.0 | 0.0 | 0.00 | 0.05 | 0.05 | 81 | 1011.9 | |
| 20260507181017 | 13 | 0.0 | 3.2 | 0.00 | 0.05 | 0.05 | 82 | 1011.8 | |
| 20260507180016 | 13 | 0.0 | 1.6 | 0.00 | 0.05 | 0.05 | 83 | 1011.9 | |
| 20260507175016 | 13 | 0.0 | 1.6 | 0.00 | 0.05 | 0.05 | 82 | 1012.0 | |
| 20260507174016 | 13 | 0.0 | 3.2 | 0.00 | 0.05 | 0.05 | 83 | 1012.0 | |
| 20260507173016 | 13 | 0.0 | 0.0 | 0.00 | 0.05 | 0.05 | 83 | 1012.3 | |
| 20260507172016 | 13 | 0.0 | 0.0 | 0.00 | 0.05 | 0.05 | 84 | 1012.2 | |
| 20260507171016 | 13 | 0.0 | 1.6 | 0.00 | 0.05 | 0.05 | 85 | 1012.4 | |
| 20260507170016 | 13 | 0.0 | 3.2 | 0.00 | 0.05 | 0.05 | 85 | 1012.5 | |
| 20260507165016 | 12 | 0.0 | 1.6 | 0.00 | 0.05 | 0.05 | 86 | 1012.6 | |
| 20260507164036 | 12 | 0.0 | 1.6 | 0.00 | 0.05 | 0.05 | 89 | 1012.7 | |
| 20260507163037 | 12 | 0.0 | 0.0 | 0.03 | 0.05 | 0.05 | 91 | 1012.7 | |
| 20260507162017 | 12 | 0.0 | 0.0 | 0.03 | 0.05 | 0.05 | 91 | 1012.7 | |
| 20260507161016 | 12 | 0.0 | 1.6 | 0.03 | 0.08 | 0.05 | 91 | 1013.0 | |
| 20260507160016 | 12 | 0.0 | 0.0 | 0.03 | 0.08 | 0.05 | 93 | 1013.0 | |
| 20260507155016 | 12 | 0.0 | 0.0 | 0.03 | 0.10 | 0.05 | 92 | 1013.1 | |
| 20260507154016 | 12 | 0.0 | 0.0 | 0.03 | 0.10 | 0.05 | 91 | 1013.1 | |
| 20260507153036 | 12 | 0.0 | 0.0 | 0.00 | 0.08 | 0.03 | 89 | 1013.1 | |
| 20260507152016 | 13 | 0.0 | 0.0 | 0.00 | 0.08 | 0.03 | 88 | 1013.0 | |
| 20260507151016 | 13 | 0.0 | 0.0 | 0.00 | 0.08 | 0.03 | 87 | 1012.9 | |
| 20260507150016 | 13 | 0.0 | 0.0 | 0.00 | 0.08 | 0.03 | 86 | 1013.0 | |
| 20260507145016 | 13 | 0.0 | 0.0 | 0.00 | 0.08 | 0.03 | 86 | 1012.9 | |
| 20260507144016 | 13 | 0.0 | 1.6 | 0.00 | 0.08 | 0.03 | 86 | 1012.7 | |
| 20260507143016 | 13 | 0.0 | 3.2 | 0.00 | 0.10 | 0.03 | 86 | 1012.8 | |
| 20260507142016 | 13 | 0.0 | 3.2 | 0.00 | 0.15 | 0.03 | 86 | 1013.0 | |
| 20260507141016 | 13 | 0.0 | 1.6 | 0.00 | 0.23 | 0.03 | 88 | 1013.1 | |
| 20260507140016 | 13 | 0.0 | 1.6 | 0.00 | 0.28 | 0.03 | 89 | 1013.1 | |
| 20260507135017 | 13 | 0.0 | 3.2 | 0.00 | 0.30 | 0.03 | 88 | 1013.1 | |
| 20260507134015 | 13 | 68 | 1.6 | 3.2 | 0.00 | 0.30 | 0.03 | 88 | 1013.1 |
| 20260507133016 | 13 | 0.0 | 1.6 | 0.00 | 0.30 | 0.03 | 88 | 1012.9 | |
| 20260507132016 | 13 | 0.0 | 3.2 | 0.00 | 0.30 | 0.03 | 88 | 1012.9 | |
| 20260507131016 | 14 | 0.0 | 3.2 | 0.00 | 0.30 | 0.03 | 88 | 1012.9 | |
| 20260507130016 | 14 | 0.0 | 1.6 | 0.00 | 0.30 | 0.03 | 89 | 1012.7 | |
| 20260507125017 | 13 | 0.0 | 0.0 | 0.00 | 0.30 | 0.03 | 89 | 1012.8 | |
| 20260507124016 | 13 | 0.0 | 0.0 | 0.00 | 0.30 | 0.03 | 89 | 1012.9 | |
| 20260507123016 | 13 | 0.0 | 0.0 | 0.00 | 0.30 | 0.03 | 89 | 1012.9 | |
| 20260507122016 | 13 | 0.0 | 0.0 | 0.00 | 0.30 | 0.03 | 88 | 1012.8 | |
| 20260507121016 | 13 | 0.0 | 0.0 | 0.00 | 0.30 | 0.03 | 88 | 1012.7 | |
| 20260507120016 | 13 | 0.0 | 0.0 | 0.00 | 0.30 | 0.03 | 88 | 1012.4 | |
| 20260507115036 | 13 | 0.0 | 0.0 | 0.00 | 0.30 | 0.03 | 88 | 1012.8 | |
| 20260507114016 | 13 | 0.0 | 0.0 | 0.00 | 0.30 | 0.03 | 88 | 1012.8 | |
| 20260507113036 | 13 | 0.0 | 0.0 | 0.00 | 0.30 | 0.03 | 88 | 1012.4 | |
| 20260507112015 | 13 | 0.0 | 0.0 | 0.00 | 0.30 | 0.03 | 88 | 1012.2 | |
| 20260507111015 | 13 | 0.0 | 0.0 | 0.00 | 0.30 | 0.03 | 87 | 1012.3 | |
| 20260507110015 | 13 | 0.0 | 0.0 | 0.00 | 0.30 | 0.03 | 87 | 1012.4 | |
| 20260507105036 | 13 | 0.0 | 0.0 | 0.00 | 0.30 | 0.03 | 86 | 1012.0 | |
| 20260507104016 | 13 | 0.0 | 0.0 | 0.00 | 0.30 | 0.03 | 86 | 1012.1 | |
| 20260507103015 | 13 | 0.0 | 0.0 | 0.00 | 0.30 | 0.03 | 85 | 1012.0 | |
| 20260507102016 | 13 | 0.0 | 3.2 | 0.00 | 0.30 | 0.03 | 86 | 1011.6 | |
| 20260507101015 | 13 | 0.0 | 3.2 | 0.00 | 0.30 | 0.03 | 85 | 1011.6 | |
| 20260507100015 | 13 | 45 | 1.6 | 4.8 | 0.00 | 0.30 | 0.03 | 86 | 1011.9 |
| 20260507095017 | 13 | 0.0 | 0.0 | 0.00 | 0.30 | 0.03 | 89 | 1012.2 | |
| 20260507094016 | 13 | 0.0 | 0.0 | 0.03 | 0.30 | 0.03 | 89 | 1012.0 | |
| 20260507093015 | 13 | 0.0 | 0.0 | 0.03 | 0.30 | 0.03 | 89 | 1012.1 | |
| 20260507092016 | 13 | 0.0 | 0.0 | 0.03 | 0.30 | 0.03 | 92 | 1011.9 | |
| 20260507091016 | 14 | 0.0 | 0.0 | 0.03 | 0.30 | 0.03 | 91 | 1011.7 | |
| 20260507090015 | 14 | 0.0 | 3.2 | 0.03 | 0.30 | 0.03 | 92 | 1011.9 | |
| 20260507085015 | 15 | 0.0 | 3.2 | 0.03 | 0.30 | 0.03 | 91 | 1011.8 | |
| 20260507084015 | 15 | 68 | 1.6 | 3.2 | 0.00 | 0.28 | 0.00 | 90 | 1011.5 |
| 20260507083035 | 15 | 0.0 | 4.8 | 0.00 | 0.28 | 0.00 | 91 | 1011.7 | |
| 20260507082015 | 15 | 68 | 3.2 | 6.4 | 0.00 | 0.28 | 0.00 | 91 | 1011.5 |
| 20260507081015 | 16 | 68 | 1.6 | 4.8 | 0.00 | 0.28 | 0.00 | 92 | 1011.6 |
| 20260507080015 | 17 | 45 | 1.6 | 4.8 | 0.00 | 0.28 | 0.00 | 93 | 1011.3 |
| 20260507075016 | 17 | 68 | 3.2 | 8.0 | 0.00 | 0.28 | 0.00 | 94 | 1010.5 |
| 20260507074015 | 18 | 45 | 1.6 | 4.8 | 0.00 | 0.28 | 0.00 | 95 | 1010.5 |
| 20260507073015 | 18 | 0.0 | 1.6 | 0.00 | 0.28 | 0.00 | 95 | 1010.5 | |
| 20260507072015 | 18 | 0.0 | 0.0 | 0.00 | 0.28 | 0.00 | 95 | 1010.4 | |
| 20260507071015 | 18 | 0.0 | 0.0 | 0.00 | 0.28 | 0.00 | 94 | 1010.6 | |
| 20260507070015 | 18 | 0.0 | 0.0 | 0.00 | 0.28 | 0.00 | 94 | 1010.7 | |
| 20260507065015 | 18 | 0.0 | 0.0 | 0.00 | 0.28 | 0.00 | 93 | 1010.3 | |
| 20260507064015 | 19 | 0.0 | 0.0 | 0.00 | 0.28 | 0.00 | 92 | 1010.0 | |
| 20260507063015 | 19 | 0.0 | 0.0 | 0.00 | 0.28 | 0.00 | 90 | 1009.8 | |
| 20260507062015 | 20 | 0.0 | 1.6 | 0.00 | 0.28 | 0.00 | 90 | 1009.7 | |
| 20260507061015 | 20 | 0.0 | 1.6 | 0.00 | 0.28 | 0.00 | 89 | 1009.4 | |
| 20260507060015 | 20 | 0.0 | 1.6 | 0.00 | 0.28 | 0.00 | 89 | 1009.2 | |
| 20260507055015 | 20 | 0.0 | 3.2 | 0.00 | 0.28 | 0.00 | 88 | 1009.6 | |
| 20260507054035 | 20 | 0.0 | 3.2 | 0.00 | 0.28 | 0.00 | 87 | 1009.4 | |
| 20260507053015 | 20 | 0.0 | 3.2 | 0.00 | 0.28 | 0.00 | 87 | 1009.7 | |
| 20260507052015 | 20 | 0.0 | 1.6 | 0.00 | 0.28 | 0.00 | 87 | 1009.8 | |
| 20260507051015 | 20 | 0.0 | 3.2 | 0.00 | 0.28 | 0.00 | 87 | 1010.1 |